CAPE
1429 1364 745 1062 1480 1200 1033 909 879 1303 1597 1207 1407 1293 1496 1289 1310 1792 1307 1550 1336 685
1172 1183 732 565 1027 728 1117 1586 1272 236 0 811 1626 1588 1504 1403 1227 1214 1188 1279 1466 1193
1284 1545 816 1401 1358 1166 689 1155 761 1264 653 1318 1646 1586 1635 1525 1465 1192 1417 1561 1290 1316
1724 1679 1196 847 1218 1285 1222 1282 1134 1086 1541 1811 1348 1508 1574 1373 1441 1278 1255 1405 1281 1125
1982 1867 1723 1085 905 1083 1342 1362 1203 959 1057 1853 1914 1929 1600 1562 1387 1565 1276 1647 1346 1610
1950 1974 1852 1928 1675 1438 1463 1565 1546 1656 1271 1752 2300 1882 2109 1630 1598 1687 1731 1372 1550 1323
2058 1975 2013 1881 2084 1874 1698 1830 1920 1736 1661 1559 1391 2330 2146 1964 1845 1796 1828 1818 1479 1381
1985 2118 2077 1970 2054 1920 2129 1900 1983 2010 1921 1983 1817 1475 1640 1598 1553 1400 1614 1785 1493 1508
2936 2727 2485 2461 2296 2409 2431 2272 2268 2446 2209 2186 2174 1643 1135 1165 1574 1421 1313 1594 1903 1663
3160 3256 3163 3175 3082 2913 2716 2761 2537 2544 2503 2369 2179 2000 1593 938 1009 1459 1200 1347 1608 1711
3334 3233 3273 3228 3141 3024 2986 2752 2337 2215 2392 2436 2500 2210 1627 971 945 891 1008 1175 1497 1593
3538 3384 3432 3228 3145 3051 2698 2411 2182 2144 2225 2413 2366 2149 1792 1119 1017 1037 1088 1225 1185 1073
3354 2923 2841 2540 2260 2179 1480 1319 1496 1523 1380 1305 1477 1786 1649 1044 1332 1256 1086 1421 1421 954
2109 1895 1541 1218 914 708 604 435 223 188 424 768 1243 1163 884 857 1283 1237 921 881 957 1262
CIN
-6 -4 -14 -7 -3 -7 -7 -13 -25 -19 -3 -15 -12 -17 -2 -9 -11 -4 -12 -12 -22 -31
-19 -24 -34 -29 -11 -16 -10 -5 -29 -94 -0 -51 -6 -2 -1 -5 -15 -11 -12 -15 -15 -38
-27 -15 -49 -15 -7 -11 -16 -5 -13 -32 -71 -13 -11 -9 -5 -10 -17 -14 -11 -4 -6 -21
-13 -15 -41 -68 -36 -20 -19 -15 -19 -18 -9 -4 -23 -15 -11 -24 -21 -16 -21 -19 -16 -30
-5 -5 -15 -61 -65 -47 -34 -27 -25 -34 -27 -6 -2 -5 -12 -18 -18 -6 -17 -9 -15 -8
-28 -20 -26 -19 -36 -40 -38 -39 -36 -27 -41 -16 -2 -8 -2 -14 -20 -10 -4 -16 -11 -14
-33 -41 -37 -29 -6 -24 -31 -19 -20 -36 -37 -39 -27 -1 -0 -1 -2 -5 -2 -2 -1 -10
-50 -42 -45 -32 -13 -13 -7 -25 -18 -15 -25 -21 -18 -27 -11 -7 -4 -6 -2 -4 -9 -6
-16 -37 -46 -31 -16 -4 -2 -5 -3 -4 -10 -7 -6 -27 -40 -16 -8 -15 -7 -6 -4 -6
-31 -23 -17 -8 -8 -9 -4 -3 -4 -2 -2 -3 -4 -8 -17 -47 -23 -9 -23 -10 -4 -4
-41 -39 -19 -12 -12 -6 -2 -3 -7 -9 -3 -1 -0 -3 -24 -44 -30 -30 -34 -26 -14 -8
-15 -10 -2 -1 -4 -2 -1 -2 -4 -5 -3 -1 -1 -3 -7 -27 -43 -17 -24 -25 -30 -23
-11 -17 -9 -18 -21 -15 -67 -65 -32 -18 -10 -9 -7 -7 -10 -28 -12 -7 -6 -2 -13 -38
-66 -50 -68 -89 -109 -110 -106 -123 -147 -118 -59 -11 -2 -10 -24 -32 -12 -10 -9 -5 -1 -6
Wind_Speed
3 1 3 3 6 4 7 6 11 6 12 4 11 14 14 13 10 13 15 18 19 21
17 20 15 17 7 11 22 10 10 8 23 25 13 15 15 15 19 20 7 17 19 21
17 16 20 23 4 2 15 17 14 10 5 9 4 10 11 14 17 10 23 17 5 18
14 13 11 14 13 3 14 17 16 15 7 4 3 6 3 2 14 20 6 24 21 15
15 15 11 12 14 12 8 1 0 2 14 9 6 2 7 8 10 20 12 3 26 15
14 13 12 9 8 6 6 4 1 3 5 8 8 6 8 7 9 11 13 6 4 14
11 10 8 8 2 3 2 7 8 10 11 9 17 19 15 13 11 9 13 10 6 4
10 8 6 3 1 4 8 9 13 13 12 19 17 16 19 17 16 17 12 11 13 12
6 5 4 2 3 3 6 9 12 13 16 17 16 16 13 12 16 15 20 15 16 16
3 2 3 5 6 6 5 9 13 13 14 16 18 23 28 25 19 16 12 19 21 24
2 4 5 6 7 9 10 10 11 15 18 18 20 20 22 28 26 23 22 21 19 21
6 7 7 7 8 13 17 19 22 24 26 27 27 25 25 25 24 24 25 23 21 19
13 16 16 18 19 19 22 25 27 30 32 34 33 29 26 24 22 22 25 24 21 21
16 16 17 18 21 23 25 26 28 31 33 34 30 31 28 25 25 22 23 23 23 21
Wind_Direction
141 318 317 119 335 2 4 15 174 137 336 193 171 192 196 190 147 169 186 211 225 238
167 175 167 178 144 305 282 334 7 14 297 243 180 194 196 198 226 228 96 202 218 232
160 164 180 198 124 64 303 308 322 359 49 157 86 357 173 192 206 174 283 212 103 209
147 152 155 171 168 120 309 304 314 316 347 12 42 356 5 137 202 314 25 243 302 326
148 156 150 164 176 175 165 47 137 335 315 329 340 347 333 333 332 313 334 6 287 315
152 154 162 159 165 167 169 171 228 319 313 314 316 318 321 323 326 328 325 330 326 314
146 153 159 171 173 193 224 312 311 312 315 311 305 304 308 312 313 317 320 322 314 298
149 149 155 176 267 302 310 307 309 309 308 305 306 304 300 301 305 307 309 312 311 309
129 129 143 157 197 318 317 310 312 311 308 307 305 300 292 285 297 299 298 301 304 304
116 56 22 7 346 330 313 315 311 312 312 310 306 301 294 293 293 292 287 294 295 296
27 5 2 358 350 341 330 322 317 314 313 311 309 305 299 292 290 291 290 290 293 292
355 348 350 346 345 340 332 323 316 312 308 306 305 305 302 298 295 291 290 288 287 284
345 337 335 335 335 333 327 319 315 310 305 302 300 301 300 298 294 292 291 290 287 284
340 339 338 334 331 328 326 322 317 312 307 301 302 300 298 295 293 291 292 292 292 290